O3B FM11

Last updated on Thu Dec 28 2023 00:03:05 GMT+0000 (Coordinated Universal Time)

1 40349U 14083B 23361.46631560 -.00000024 00000+0 00000+0 0 9997 2 40349 0.0459 9.4554 0002886 252.0366 98.4737 5.00115565164743
UTC large
Height (km)
Speed (km/s)
/
Latitude / Longitude
Inclination (degrees)
Orbital Period (minutes)
Azimuth
Elevation
Range (km)
Doppler Factor

Next 0 passes for location: London (51.5072 / 0.1276)

Sorry there are no passes over London.